| time (UTC) | temp F | wind direction | speed knots | gust knots | rain 1hr in | rain 24hr in | rain mn in | humidity % | barometer mb |
| 20260505083002 | 59 | 90 | 3.5 | 0.0 | 0.00 | 0.00 | 0.00 | 79 | 1004.3 |
| 20260505081502 | 58 | 90 | 3.5 | 0.0 | 0.00 | 0.00 | 0.00 | 79 | 1004.2 |
| 20260505080002 | 58 | 80 | 6.1 | 0.0 | 0.00 | 0.00 | 0.00 | 79 | 1004.2 |
| 20260505074502 | 58 | 80 | 6.1 | 0.0 | 0.00 | 0.00 | 0.00 | 80 | 1004.2 |
| 20260505073002 | 58 | 70 | 5.2 | 0.0 | 0.00 | 0.00 | 0.00 | 80 | 1004.2 |
| 20260505071502 | 57 | 60 | 6.1 | 0.0 | 0.00 | 0.00 | 0.00 | 80 | 1004.3 |
| 20260505070002 | 57 | 60 | 6.1 | 0.0 | 0.00 | 0.00 | 0.00 | 80 | 1004.3 |
| 20260505064502 | 57 | 60 | 6.1 | 0.0 | 0.00 | 0.00 | 0.00 | 82 | 1004.6 |
| 20260505063002 | 57 | 50 | 5.2 | 0.0 | 0.00 | 0.00 | 0.00 | 82 | 1004.6 |
| 20260505061502 | 57 | 50 | 5.2 | 0.0 | 0.00 | 0.00 | 0.00 | 82 | 1004.5 |
| 20260505060002 | 57 | 40 | 5.2 | 0.0 | 0.00 | 0.00 | 0.00 | 82 | 1004.5 |
| 20260505054502 | 57 | 40 | 5.2 | 0.0 | 0.00 | 0.00 | 0.00 | 80 | 1004.5 |
| 20260505053002 | 57 | 30 | 3.5 | 0.0 | 0.00 | 0.00 | 0.00 | 80 | 1004.5 |
| 20260505051502 | 56 | 30 | 3.5 | 0.0 | 0.00 | 0.00 | 0.00 | 83 | 1004.7 |
| 20260505041502 | 56 | 30 | 3.5 | 0.0 | 0.00 | 0.00 | 0.00 | 81 | 1004.8 |
| 20260505040003 | 56 | 30 | 3.5 | 0.0 | 0.00 | 0.00 | 0.00 | 81 | 1004.8 |
| 20260505034502 | 56 | 10 | 1.7 | 0.0 | 0.00 | 0.00 | 0.00 | 81 | 1004.9 |
| 20260505033002 | 56 | 10 | 1.7 | 0.0 | 0.00 | 0.00 | 0.00 | 81 | 1004.9 |
| 20260505031502 | 57 | 10 | 1.7 | 0.0 | 0.00 | 0.00 | 0.00 | 77 | 1005.3 |
| 20260505030003 | 57 | 90 | 2.6 | 0.0 | 0.00 | 0.00 | 0.00 | 77 | 1005.3 |
| 20260504204502 | 62 | 30 | 4.3 | 0.0 | 0.00 | 0.00 | 0.00 | 66 | 1006.4 |
| 20260504203002 | 62 | 20 | 3.5 | 0.0 | 0.00 | 0.00 | 0.00 | 66 | 1006.4 |
| 20260504201502 | 62 | 360 | 3.5 | 0.0 | 0.00 | 0.00 | 0.00 | 68 | 1006.3 |
| 20260504200002 | 62 | 360 | 3.5 | 0.0 | 0.00 | 0.00 | 0.00 | 68 | 1006.3 |
| 20260504194502 | 63 | 360 | 3.5 | 0.0 | 0.00 | 0.00 | 0.00 | 66 | 1006.2 |
| 20260504193002 | 63 | 350 | 4.3 | 0.0 | 0.00 | 0.00 | 0.00 | 66 | 1006.2 |
| 20260504191502 | 64 | 350 | 4.3 | 0.0 | 0.00 | 0.00 | 0.00 | 65 | 1006.1 |
| 20260504190002 | 64 | 340 | 5.2 | 0.0 | 0.00 | 0.00 | 0.00 | 65 | 1006.1 |
| 20260504184502 | 66 | 340 | 5.2 | 0.0 | 0.00 | 0.00 | 0.00 | 62 | 1006.0 |
| 20260504183002 | 66 | 340 | 5.2 | 0.0 | 0.00 | 0.00 | 0.00 | 62 | 1006.0 |
| 20260504181503 | 68 | 340 | 5.2 | 0.0 | 0.00 | 0.00 | 0.00 | 58 | 1005.9 |
| 20260504180002 | 68 | 350 | 4.3 | 0.0 | 0.00 | 0.00 | 0.00 | 58 | 1005.9 |
| 20260504174502 | 69 | 350 | 4.3 | 0.0 | 0.00 | 0.00 | 0.00 | 55 | 1005.9 |
| 20260504173003 | 69 | 320 | 5.2 | 0.0 | 0.00 | 0.00 | 0.00 | 55 | 1005.9 |
| 20260504171502 | 69 | 320 | 5.2 | 0.0 | 0.00 | 0.00 | 0.00 | 54 | 1005.8 |